Temp
20 20 20 19 20 20 20 20 20 21 21 21 20 19 19 19 19 19 20 19 19 19 19 19 19 18 18 18 18 18 18 18 17 17 17 18 17 17 18 18 18 17 18
21 20 20 19 19 20 20 21 21 21 20 20 19 19 19 19 19 19 19 18 19 19 19 19 18 18 17 17 17 17 17 18 18 18 18 18 18 17 17 17 17 17 17
21 20 20 20 19 20 20 20 20 20 20 20 20 19 19 19 19 18 18 18 19 19 19 19 18 17 17 17 17 17 17 18 18 18 18 18 17 17 16 16 16 16 16
21 21 20 20 19 20 20 20 20 20 20 20 20 19 19 19 19 19 18 18 19 19 19 18 17 19 19 18 17 17 17 18 17 18 18 17 16 16 16 16 16 16 16
21 21 20 21 20 20 20 20 20 20 20 20 20 20 20 19 20 19 18 19 19 19 19 18 19 19 19 18 18 18 18 18 18 18 18 17 17 16 16 16 16 16 16
21 21 21 21 21 21 21 20 20 20 20 19 19 20 19 19 20 19 19 19 19 19 19 19 19 19 19 18 18 18 18 18 18 18 18 17 16 16 16 16 16 16 16
20 20 20 21 21 20 20 20 20 19 19 19 19 19 19 19 19 19 19 19 19 18 18 19 18 19 19 19 19 18 18 18 18 18 18 17 16 16 16 16 16 16 15
20 20 20 19 20 20 19 19 19 19 19 19 19 19 19 19 19 19 19 19 18 18 18 18 18 19 19 19 19 19 19 18 18 18 18 18 16 16 16 16 16 16 16
20 20 19 19 18 18 18 18 18 18 19 19 19 19 19 19 19 19 19 19 18 18 18 18 18 18 19 19 19 19 18 18 18 18 18 18 17 16 16 17 17 16 16
20 20 19 18 18 17 17 17 17 18 18 19 19 19 19 19 19 19 18 18 18 19 18 18 17 17 19 19 19 19 19 19 18 18 18 18 17 16 17 17 17 17 16
17 18 19 18 18 17 18 18 18 17 17 18 19 19 19 19 19 19 18 18 18 18 18 18 18 18 19 19 19 19 19 19 19 18 19 19 18 17 17 17 17 17 17
15 16 17 17 18 18 18 19 19 18 18 18 18 19 19 19 18 18 18 18 18 18 17 17 18 19 19 19 19 19 19 19 19 19 19 19 18 18 18 18 17 17 17
16 16 17 17 17 17 17 18 19 20 18 19 19 18 18 18 18 18 18 17 17 17 17 18 18 18 19 19 20 20 19 19 19 19 19 19 19 18 18 18 18 17 17
17 18 18 17 17 17 17 18 19 20 20 19 18 17 16 17 17 17 18 17 16 17 17 18 18 19 19 19 20 20 20 20 20 20 19 19 19 19 18 18 18 17 17
17 17 16 17 18 18 17 16 16 17 18 20 18 18 17 15 16 17 17 17 16 17 17 18 18 19 19 19 19 20 20 20 20 20 20 19 19 19 19 18 18 17 17
18 18 17 17 18 18 16 14 14 15 18 19 19 18 17 17 15 16 16 16 16 16 18 18 19 19 19 19 19 20 20 20 20 20 20 20 20 19 19 19 18 18 17
18 18 17 16 16 16 16 14 14 14 16 18 18 17 18 17 16 16 16 16 17 17 18 18 18 19 19 19 19 19 20 20 20 20 20 20 20 20 19 19 18 18 17
18 17 18 17 16 17 16 15 15 15 15 16 15 15 18 17 17 16 17 17 18 18 18 18 18 18 19 19 20 20 20 20 20 20 20 20 21 20 20 19 18 18 17
18 17 16 16 17 17 15 14 15 16 15 15 16 16 18 18 17 17 17 18 18 18 18 18 18 18 19 19 19 20 20 20 20 20 20 20 20 20 20 19 18 17 17
17 17 17 17 16 16 15 14 15 16 16 17 17 17 17 17 18 18 18 18 18 18 18 18 19 19 19 19 19 19 20 20 20 20 20 20 20 20 20 18 18 17 17
16 15 16 15 16 16 15 15 15 16 15 15 16 16 16 17 18 18 18 18 18 18 19 19 19 19 19 19 19 19 19 19 19 20 20 20 20 19 19 18 18 17 17
14 14 14 14 14 14 15 15 14 16 15 15 15 15 16 19 19 18 19 19 19 19 19 19 19 19 19 19 18 17 16 17 19 19 19 19 19 19 18 18 17 17 16
12 13 13 14 14 14 15 15 15 15 15 15 15 15 16 17 18 18 18 19 18 18 18 18 19 19 18 18 18 18 14 15 15 17 17 18 18 18 17 18 17 16 15
11 12 13 13 14 14 14 14 15 15 14 14 15 15 15 16 17 17 18 17 18 18 18 18 18 17 17 16 16 17 18 17 14 15 15 15 16 15 15 16 16 16 15
11 12 12 13 13 14 14 14 13 14 14 14 14 14 14 14 15 16 16 16 17 17 17 17 17 16 16 17 16 16 15 15 15 13 13 13 14 14 14 15 15 15 15
10 11 11 11 12 12 13 13 13 13 14 13 14 14 14 14 14 14 14 14 15 15 15 16 16 17 17 16 16 15 15 14 13 12 12 12 13 13 14 14 14 14 14
Height
769 772 776 778 779 780 783 786 788 790 792 795 797 799 800 802 804 806 807 809 810 811 812 814 816 817 818 820 821 821 822 822 823 824 824 824 824 824 824 824 825 825 824
767 772 777 778 780 782 783 787 789 792 794 796 799 800 802 803 805 807 810 811 813 814 814 816 817 818 819 821 822 823 824 824 824 824 825 825 825 826 826 826 827 827 826
767 771 776 779 781 782 785 786 789 793 795 797 799 801 802 804 805 807 810 813 815 816 816 817 818 819 820 822 824 825 825 826 826 827 827 826 827 828 828 828 828 828 828
767 771 776 779 782 783 785 787 789 792 795 798 799 801 803 804 806 808 810 814 816 819 819 819 820 820 821 823 825 826 827 828 828 829 829 828 829 829 829 829 829 829 829
769 772 777 780 783 785 786 787 789 792 794 798 800 802 804 805 806 808 811 814 817 819 821 821 821 822 823 825 827 828 828 828 829 830 830 830 830 830 830 830 830 830 830
769 772 774 779 782 784 786 788 790 792 794 796 799 801 803 806 807 809 811 813 817 819 822 823 823 824 825 826 827 829 829 830 830 831 831 831 832 832 832 831 831 831 831
769 773 776 780 783 785 788 788 790 792 794 796 798 800 803 805 808 810 811 814 817 820 822 824 824 825 826 827 828 830 830 831 831 832 832 832 832 833 833 833 832 832 832
766 771 779 783 784 785 788 790 791 792 794 796 797 799 801 804 807 810 812 815 817 820 822 823 825 825 827 828 829 830 831 832 833 833 833 833 833 833 833 833 833 833 833
765 768 774 779 782 781 785 788 789 791 793 795 796 799 800 803 807 810 813 815 817 819 821 822 824 826 827 828 829 830 831 832 833 833 834 834 834 834 834 834 834 834 834
765 767 768 775 780 782 785 787 788 790 791 793 796 799 802 804 806 809 813 815 817 819 820 822 824 826 827 828 829 831 832 831 833 834 834 835 835 835 834 835 835 835 835
767 767 769 772 776 780 784 786 786 788 790 791 795 797 800 803 805 807 811 814 815 817 819 821 822 824 826 828 829 830 831 831 832 833 834 835 835 836 835 835 835 835 835
768 768 771 773 774 780 783 784 785 786 791 793 794 796 798 800 803 804 808 812 814 815 818 821 822 824 825 827 828 829 830 831 831 832 833 834 835 835 835 835 835 835 835
766 768 771 773 775 777 780 781 781 785 787 792 794 795 796 796 799 801 805 808 811 813 815 818 821 822 824 825 826 828 829 830 831 831 833 832 834 835 834 835 835 835 835
765 766 767 769 772 774 776 777 778 779 784 787 789 793 793 793 794 795 799 803 807 809 812 815 818 820 821 823 825 826 827 828 829 830 831 832 833 834 834 834 834 834 834
762 763 766 767 767 770 770 771 773 775 777 783 784 787 793 792 790 794 797 798 804 807 810 813 816 818 819 821 822 824 825 826 827 827 830 831 831 832 832 833 833 833 833
757 758 760 763 765 765 767 768 771 770 770 773 779 779 787 789 786 785 791 796 800 804 807 810 813 816 818 819 820 821 823 824 825 825 826 828 829 830 831 831 832 832 832
752 753 756 760 760 762 764 765 765 765 760 763 770 773 775 783 784 786 790 794 797 802 805 809 813 815 816 817 818 819 820 820 822 823 823 825 826 827 828 829 830 830 830
748 751 749 754 756 757 760 760 761 760 758 755 764 764 767 776 781 787 788 791 794 799 802 806 810 812 813 814 815 816 817 818 818 819 821 821 822 824 824 825 827 827 828
745 747 748 750 749 755 758 758 757 756 756 745 757 758 764 771 777 782 786 789 792 796 799 801 806 809 811 811 812 813 814 815 816 816 818 817 819 820 822 823 824 824 825
741 744 747 746 748 752 754 754 754 752 750 746 750 757 763 767 773 779 784 787 789 793 796 798 801 805 807 808 809 811 811 812 812 812 812 813 815 816 818 819 821 821 821
739 744 744 745 746 748 750 750 750 747 749 746 742 755 761 763 768 774 779 783 785 788 790 793 798 800 802 805 806 807 808 809 809 809 809 810 812 813 815 816 817 818 819
742 746 745 744 746 746 743 745 747 744 745 745 742 750 759 763 766 771 775 779 782 783 788 790 792 795 799 800 801 804 807 807 806 807 807 807 808 808 810 812 814 816 816
748 746 744 744 744 743 739 740 742 742 743 739 741 750 756 761 765 769 772 776 778 780 783 785 787 789 792 795 797 798 804 804 801 803 802 804 807 807 808 809 810 812 814
749 746 743 742 741 739 739 737 741 741 740 742 738 746 754 759 763 767 770 772 776 776 778 781 783 784 786 789 793 793 793 793 800 800 799 803 803 806 808 807 806 810 812
748 745 743 741 740 734 731 741 736 736 739 740 742 748 751 756 759 764 767 770 773 777 779 781 782 782 783 784 784 784 789 789 788 790 797 796 798 798 806 807 805 807 808
748 746 743 742 740 736 732 738 736 736 739 743 745 746 752 757 758 764 766 768 772 772 775 777 779 780 780 781 780 783 784 786 786 784 787 790 785 788 787 797 803 804 805
Wind_Speed
14 27 24 21 21 22 21 20 18 19 18 16 16 16 17 17 18 17 17 21 19 18 19 18 17 17 17 16 17 17 16 15 16 16 15 16 17 16 16 14 15 15 15
21 27 23 21 20 21 21 20 18 17 18 17 15 16 17 18 18 17 18 19 18 19 19 20 17 17 17 17 18 17 18 17 16 15 14 14 14 12 11 14 12 12 13
27 28 25 21 20 20 20 21 19 17 17 17 16 16 17 17 18 18 18 18 17 18 19 19 17 17 17 18 19 19 19 19 18 16 15 15 15 15 14 14 13 12 12
28 28 25 22 20 19 18 17 18 17 16 16 17 17 17 18 18 19 19 18 19 17 17 17 16 18 21 21 18 17 15 12 13 14 13 16 16 14 14 14 13 14 14
25 27 25 23 20 18 16 15 15 16 17 17 17 17 18 19 19 19 20 22 19 20 16 14 15 18 21 21 17 14 11 13 13 13 12 13 15 13 13 14 14 14 14
24 26 26 23 20 18 16 13 12 13 17 18 18 19 19 19 20 20 24 22 21 21 19 14 15 17 21 19 17 16 15 15 13 11 11 13 13 12 12 13 13 12 13
24 23 23 20 18 16 13 11 11 12 13 20 20 21 21 21 21 23 23 23 21 20 20 17 15 16 18 19 17 15 13 13 12 10 11 12 12 11 11 11 11 11 11
25 21 17 14 14 14 11 8 9 9 7 16 20 22 23 23 22 24 24 22 22 20 19 18 15 16 17 19 16 15 11 12 12 8 8 9 10 10 9 9 9 9 9
24 23 22 18 16 16 14 10 8 6 6 13 20 21 22 23 24 26 23 23 21 19 19 22 17 14 16 18 16 15 11 12 11 8 7 7 8 8 7 7 8 8 8
21 22 26 22 20 17 13 9 5 2 2 7 18 19 21 23 25 27 24 24 23 21 21 19 18 16 15 16 16 14 12 10 10 6 6 4 6 6 6 6 6 7 7
21 23 23 24 21 20 14 9 7 8 6 4 16 19 22 25 28 28 26 24 24 24 22 22 20 17 15 15 15 15 13 13 11 9 6 4 5 5 5 5 4 4 4
16 19 20 22 22 21 15 5 4 4 14 13 9 21 26 30 31 30 28 26 24 26 24 21 19 16 15 14 14 16 14 12 10 10 8 4 5 6 5 4 3 2 1
18 17 18 16 18 17 15 21 18 20 20 25 19 22 30 34 33 33 31 28 26 25 24 21 19 18 16 15 14 15 14 12 11 11 9 5 6 6 5 4 4 4 3
17 18 17 18 18 18 20 25 24 28 31 23 15 22 27 36 36 35 35 32 29 28 26 23 21 19 17 15 14 14 13 12 12 12 9 7 7 7 7 6 6 6 6
17 14 16 17 17 15 16 19 21 28 28 22 18 22 31 23 39 36 36 33 30 28 26 24 21 20 19 18 15 14 13 12 12 13 14 11 9 7 8 8 8 8 8
17 15 15 17 17 15 16 17 20 20 23 18 29 28 34 32 30 35 35 35 32 30 27 24 23 21 19 18 15 15 14 13 13 14 14 16 8 11 9 8 8 7 7
22 16 21 20 15 14 16 19 21 19 18 23 32 35 39 38 30 33 34 34 33 31 26 23 21 19 18 18 17 16 16 14 15 16 15 16 13 13 11 10 10 9 8
16 21 20 25 19 15 19 23 26 25 28 31 35 37 42 38 31 32 34 34 31 30 27 24 22 21 20 19 19 18 18 16 17 17 18 15 12 14 14 13 12 11 10
20 18 20 23 19 20 22 24 27 27 27 25 27 30 41 41 37 35 32 32 32 30 28 26 24 23 21 19 19 17 19 18 17 19 18 16 16 13 14 13 13 13 11
17 15 17 18 21 22 20 18 22 24 25 29 23 27 36 37 39 36 36 31 30 29 28 27 25 24 21 18 16 15 15 16 16 17 19 18 18 16 14 14 13 13 11
12 15 17 19 23 23 22 21 23 23 26 27 35 31 29 35 39 39 34 31 31 32 30 28 26 23 21 16 13 13 14 13 13 16 15 13 13 15 14 13 12 11 9
7 13 15 20 20 24 18 20 21 21 22 23 33 33 34 32 33 38 33 32 31 31 30 30 29 22 20 19 9 4 1 5 18 20 16 17 20 18 16 13 12 11 11
6 2 9 17 19 18 16 14 20 17 14 15 21 30 31 31 34 34 34 34 31 31 33 33 31 27 22 21 20 7 2 4 2 7 12 15 18 19 17 13 12 11 11
5 3 6 3 10 17 20 12 21 15 13 15 18 24 28 29 26 25 34 28 28 28 30 30 29 27 24 18 14 20 14 8 3 2 2 8 14 12 13 14 11 11 12
5 6 7 10 13 11 21 10 7 15 14 19 18 21 18 16 20 19 18 17 17 17 19 20 22 24 24 16 17 14 18 17 14 4 2 6 11 12 8 13 11 13 11
14 13 13 16 17 20 19 6 9 11 9 9 15 18 16 15 13 13 9 13 18 17 21 20 21 21 24 25 22 22 15 9 7 5 2 6 14 24 26 18 15 16 16
Wind_Direction
174 170 177 165 160 157 157 160 161 162 159 154 148 144 140 144 142 143 140 136 135 131 136 131 121 119 114 116 115 112 110 113 106 104 104 99 88 83 85 85 75 70 67
171 170 178 167 164 161 158 158 166 167 164 161 156 151 148 145 143 143 142 142 137 137 139 128 122 122 118 118 120 115 108 102 102 105 103 99 93 88 91 84 82 75 68
173 172 177 173 168 166 165 164 167 170 171 170 166 159 156 156 147 146 147 148 145 139 135 132 128 122 120 120 119 117 110 102 97 96 99 95 90 85 80 78 78 77 72
170 173 176 173 171 169 168 167 171 173 177 179 175 172 167 162 158 152 152 154 147 150 135 135 130 127 129 127 124 121 116 108 102 97 99 97 90 87 84 81 77 75 73
171 175 177 175 173 170 168 167 174 183 183 190 186 183 177 168 166 158 157 153 154 157 153 145 139 132 134 131 128 119 120 131 119 101 97 99 97 90 88 84 81 77 74
177 180 179 180 176 176 176 169 174 181 190 192 195 192 186 178 173 166 157 158 160 160 156 157 146 138 141 138 130 121 121 132 126 106 98 99 95 94 90 88 86 84 82
176 182 182 182 180 174 173 171 173 179 194 199 201 200 193 185 177 174 165 160 164 163 162 160 155 145 148 146 138 132 131 141 132 113 114 111 106 101 97 93 91 86 83
166 177 184 181 182 171 165 177 189 187 208 212 208 204 195 188 182 176 163 166 166 167 170 166 167 155 151 154 148 142 139 147 145 119 118 119 116 110 105 99 93 88 85
164 168 168 167 161 155 153 160 174 211 226 224 211 207 200 190 183 173 167 173 172 173 177 176 172 165 158 160 159 151 144 148 151 138 127 128 126 126 114 104 95 86 82
165 173 157 161 161 151 136 131 100 197 263 234 212 209 202 192 182 175 175 179 176 176 182 177 167 179 168 164 166 162 156 162 166 166 157 148 140 138 123 111 103 94 84
148 157 167 167 162 155 145 118 89 54 348 312 219 210 201 192 184 180 181 183 183 184 182 180 181 180 175 170 170 173 165 170 176 173 166 162 158 153 145 129 121 108 91
163 158 162 161 166 171 175 186 109 349 345 345 263 213 203 189 185 182 184 184 187 191 188 190 188 181 179 177 174 178 177 178 179 186 190 183 185 181 170 168 157 146 139
182 185 187 182 181 187 218 247 270 268 298 308 305 229 203 190 186 183 186 187 189 191 186 189 189 187 184 183 181 183 190 196 203 197 201 205 205 204 203 210 224 239 249
204 213 219 221 226 235 249 253 247 253 264 296 285 239 201 194 189 186 187 188 193 191 189 191 194 192 191 188 187 190 193 203 210 203 208 209 212 222 226 232 248 260 267
216 215 208 209 208 218 243 241 244 234 230 275 258 241 223 204 190 192 192 190 197 194 194 194 198 199 197 197 199 201 205 212 217 212 221 220 224 241 239 241 249 258 261
217 218 217 215 214 223 243 238 228 225 224 248 246 237 228 220 199 191 194 194 198 198 197 198 200 203 203 204 209 211 215 225 221 222 219 222 242 237 238 244 245 258 262
216 209 208 215 219 234 234 236 230 228 230 229 247 238 215 215 212 194 197 200 203 201 199 201 205 205 204 211 218 219 224 221 222 235 236 236 229 237 245 236 238 250 264
219 213 205 211 222 244 246 243 237 231 244 232 227 207 206 214 207 209 201 205 201 200 199 201 206 212 219 221 219 219 225 224 224 230 239 237 240 247 247 230 235 245 258
215 213 214 213 217 239 242 253 247 241 223 188 200 194 202 213 210 203 209 210 199 197 198 201 209 215 218 220 222 225 226 232 240 242 246 228 242 236 239 228 233 244 252
202 210 219 221 222 228 244 262 253 228 207 182 191 207 206 207 214 208 206 204 197 200 203 203 209 213 220 217 215 222 231 240 247 245 231 229 229 236 222 223 233 243 254
186 206 210 219 224 224 234 250 266 225 215 196 183 205 205 198 204 201 202 203 199 201 205 204 206 210 211 211 214 233 245 247 245 232 208 222 218 205 216 227 239 243 243
194 234 231 228 237 236 224 247 243 238 224 209 191 198 205 210 207 204 202 202 207 206 206 207 206 205 209 206 189 165 222 250 236 236 239 225 213 210 214 223 232 229 224
44 327 254 242 247 242 239 237 238 236 223 195 183 203 204 208 204 204 205 205 205 210 211 207 205 206 199 204 208 168 139 216 184 232 229 212 207 206 210 221 223 219 215
351 30 49 252 239 247 231 229 212 203 183 206 162 192 203 211 210 207 204 200 201 204 204 206 209 209 204 194 201 222 230 167 189 202 93 211 203 207 221 213 211 219 215
17 35 44 64 32 182 176 171 134 151 145 169 173 183 185 191 195 214 211 214 220 228 235 238 230 221 222 225 211 212 216 206 197 146 215 175 194 190 227 224 216 219 225
62 63 56 55 52 40 84 77 35 64 70 112 145 144 158 175 180 201 229 266 258 248 242 241 248 249 242 238 237 233 220 208 214 178 172 209 189 190 185 199 222 227 231